| time (UTC) | temp F | wind direction | speed MPH | gust MPH | rain 1hr in | rain 24hr in | rain mn in | humidity % | barometer mb |
| 20260506101538 | 74 | 175 | 0.0 | 3.0 | 0.00 | 0.00 | 0.00 | 85 | 1007.5 |
| 20260506100013 | 74 | 152 | 1.0 | 4.0 | 0.00 | 0.00 | 0.00 | 85 | 1007.5 |
| 20260506094552 | 73 | 174 | 1.0 | 4.0 | 0.00 | 0.00 | 0.00 | 85 | 1007.4 |
| 20260506093025 | 73 | 162 | 0.0 | 4.0 | 0.00 | 0.00 | 0.00 | 85 | 1007.5 |
| 20260506091502 | 74 | 167 | 1.0 | 4.0 | 0.00 | 0.00 | 0.00 | 85 | 1007.5 |
| 20260506090047 | 74 | 144 | 2.0 | 4.0 | 0.00 | 0.00 | 0.00 | 85 | 1007.4 |
| 20260506084517 | 74 | 184 | 1.0 | 3.0 | 0.00 | 0.00 | 0.00 | 85 | 1007.3 |
| 20260506083054 | 74 | 153 | 1.0 | 6.0 | 0.00 | 0.00 | 0.00 | 85 | 1007.3 |
| 20260506081531 | 74 | 162 | 1.0 | 4.0 | 0.00 | 0.00 | 0.00 | 84 | 1007.1 |
| 20260506073001 | 74 | 180 | 1.0 | 6.0 | 0.00 | 0.00 | 0.00 | 83 | 1007.8 |
| 20260506071530 | 75 | 106 | 3.0 | 8.0 | 0.00 | 0.00 | 0.00 | 83 | 1008.0 |
| 20260506061558 | 75 | 117 | 4.0 | 10.0 | 0.00 | 0.00 | 0.00 | 83 | 1008.1 |
| 20260506044555 | 76 | 169 | 4.0 | 9.0 | 0.00 | 0.00 | 0.00 | 81 | 1008.3 |
| 20260506043039 | 76 | 153 | 4.0 | 7.0 | 0.00 | 0.00 | 0.00 | 81 | 1008.3 |
| 20260506041509 | 76 | 115 | 3.0 | 8.0 | 0.00 | 0.00 | 0.00 | 81 | 1008.1 |
| 20260506040047 | 76 | 129 | 3.0 | 6.0 | 0.00 | 0.00 | 0.00 | 81 | 1008.2 |
| 20260506034527 | 76 | 121 | 3.0 | 7.0 | 0.00 | 0.00 | 0.00 | 81 | 1008.2 |
| 20260506033100 | 76 | 140 | 5.0 | 9.0 | 0.00 | 0.00 | 0.00 | 81 | 1007.9 |
| 20260506031546 | 76 | 140 | 4.0 | 7.0 | 0.00 | 0.00 | 0.00 | 80 | 1007.7 |
| 20260506030018 | 76 | 123 | 2.0 | 8.0 | 0.00 | 0.00 | 0.00 | 80 | 1007.6 |
| 20260506024558 | 77 | 95 | 3.0 | 8.0 | 0.00 | 0.00 | 0.00 | 80 | 1007.1 |
| 20260506023030 | 77 | 118 | 4.0 | 6.0 | 0.00 | 0.00 | 0.00 | 79 | 1007.0 |
| 20260506021508 | 77 | 118 | 2.0 | 7.0 | 0.00 | 0.00 | 0.00 | 79 | 1006.8 |
| 20260506020046 | 77 | 113 | 3.0 | 7.0 | 0.00 | 0.00 | 0.00 | 78 | 1006.6 |
| 20260506014525 | 78 | 118 | 2.0 | 9.0 | 0.00 | 0.00 | 0.00 | 78 | 1006.5 |
| 20260506013107 | 78 | 124 | 3.0 | 10.0 | 0.00 | 0.00 | 0.00 | 76 | 1006.1 |
| 20260506011539 | 79 | 129 | 5.0 | 12.0 | 0.00 | 0.00 | 0.00 | 75 | 1005.9 |
| 20260506010013 | 79 | 127 | 5.0 | 13.0 | 0.00 | 0.00 | 0.00 | 74 | 1005.7 |
| 20260506004551 | 80 | 144 | 5.0 | 12.0 | 0.00 | 0.00 | 0.00 | 73 | 1005.6 |
| 20260506003027 | 80 | 151 | 6.0 | 12.0 | 0.00 | 0.00 | 0.00 | 72 | 1005.5 |
| 20260506001504 | 81 | 121 | 4.0 | 8.0 | 0.00 | 0.00 | 0.00 | 72 | 1005.5 |
| 20260506000042 | 81 | 135 | 4.0 | 10.0 | 0.00 | 0.00 | 0.00 | 71 | 1005.2 |
| 20260505234504 | 82 | 108 | 7.0 | 15.0 | 0.00 | 0.00 | 0.00 | 70 | 1005.1 |
| 20260505233038 | 82 | 125 | 7.0 | 15.0 | 0.00 | 0.00 | 0.00 | 69 | 1005.0 |
| 20260505231510 | 84 | 124 | 7.0 | 16.0 | 0.00 | 0.00 | 0.00 | 69 | 1005.0 |
| 20260505230052 | 84 | 104 | 5.0 | 14.0 | 0.00 | 0.00 | 0.00 | 67 | 1004.9 |
| 20260505224523 | 85 | 130 | 7.0 | 14.0 | 0.00 | 0.00 | 0.00 | 65 | 1005.0 |
| 20260505223106 | 85 | 120 | 7.0 | 14.0 | 0.00 | 0.00 | 0.00 | 65 | 1004.9 |
| 20260505221531 | 86 | 167 | 5.0 | 12.0 | 0.00 | 0.00 | 0.00 | 64 | 1005.1 |
| 20260505220001 | 86 | 122 | 7.0 | 13.0 | 0.00 | 0.00 | 0.00 | 64 | 1005.4 |
| 20260505214600 | 86 | 143 | 6.0 | 12.0 | 0.00 | 0.00 | 0.00 | 63 | 1005.4 |
| 20260505213009 | 86 | 143 | 6.0 | 13.0 | 0.00 | 0.00 | 0.00 | 63 | 1005.6 |
| 20260505211540 | 86 | 124 | 5.0 | 12.0 | 0.00 | 0.00 | 0.00 | 62 | 1005.8 |
| 20260505210010 | 86 | 116 | 6.0 | 15.0 | 0.00 | 0.00 | 0.00 | 62 | 1006.1 |
| 20260505204541 | 86 | 194 | 6.0 | 11.0 | 0.00 | 0.00 | 0.00 | 63 | 1006.4 |
| 20260505203008 | 86 | 203 | 7.0 | 13.0 | 0.00 | 0.00 | 0.00 | 64 | 1006.7 |
| 20260505201538 | 85 | 131 | 5.0 | 11.0 | 0.00 | 0.00 | 0.00 | 66 | 1006.8 |
| 20260505200006 | 85 | 185 | 6.0 | 13.0 | 0.00 | 0.00 | 0.00 | 64 | 1007.1 |
| 20260505194533 | 84 | 197 | 5.0 | 11.0 | 0.00 | 0.00 | 0.00 | 66 | 1007.2 |
| 20260505193058 | 84 | 196 | 4.0 | 9.0 | 0.00 | 0.00 | 0.00 | 68 | 1007.6 |
| 20260505191523 | 83 | 161 | 2.0 | 6.0 | 0.00 | 0.00 | 0.00 | 69 | 1007.7 |
| 20260505190051 | 82 | 186 | 3.0 | 7.0 | 0.00 | 0.00 | 0.00 | 71 | 1008.1 |
| 20260505184520 | 81 | 189 | 5.0 | 9.0 | 0.00 | 0.00 | 0.00 | 71 | 1008.1 |
| 20260505183102 | 80 | 153 | 3.0 | 10.0 | 0.00 | 0.00 | 0.00 | 73 | 1008.3 |
| 20260505181519 | 80 | 188 | 4.0 | 8.0 | 0.00 | 0.00 | 0.00 | 73 | 1008.4 |
| 20260505180055 | 79 | 151 | 6.0 | 10.0 | 0.00 | 0.00 | 0.00 | 74 | 1008.4 |
| 20260505174519 | 78 | 150 | 3.0 | 9.0 | 0.00 | 0.00 | 0.00 | 76 | 1008.5 |
| 20260505173053 | 78 | 210 | 4.0 | 10.0 | 0.00 | 0.00 | 0.00 | 76 | 1008.7 |
| 20260505171525 | 77 | 197 | 3.0 | 7.0 | 0.00 | 0.00 | 0.00 | 77 | 1008.6 |
| 20260505170057 | 77 | 184 | 3.0 | 7.0 | 0.00 | 0.00 | 0.00 | 78 | 1008.7 |
| 20260505164528 | 76 | 191 | 3.0 | 7.0 | 0.00 | 0.00 | 0.00 | 79 | 1008.9 |
| 20260505163009 | 76 | 212 | 4.0 | 8.0 | 0.00 | 0.00 | 0.00 | 80 | 1008.9 |
| 20260505161536 | 75 | 211 | 4.0 | 6.0 | 0.00 | 0.00 | 0.00 | 80 | 1009.0 |
| 20260505153017 | 74 | 208 | 4.0 | 9.0 | 0.00 | 0.00 | 0.00 | 82 | 1008.8 |
| 20260505151604 | 74 | 195 | 7.0 | 12.0 | 0.00 | 0.00 | 0.00 | 81 | 1008.8 |
| 20260505124521 | 70 | 159 | 4.0 | 9.0 | 0.00 | 0.00 | 0.00 | 85 | 1008.1 |
| 20260505123055 | 70 | 140 | 4.0 | 8.0 | 0.00 | 0.00 | 0.00 | 85 | 1008.1 |
| 20260505121536 | 70 | 141 | 4.0 | 9.0 | 0.00 | 0.00 | 0.00 | 85 | 1008.0 |
| 20260505120016 | 69 | 164 | 3.0 | 8.0 | 0.00 | 0.00 | 0.00 | 85 | 1007.9 |
| 20260505114551 | 69 | 148 | 3.0 | 6.0 | 0.00 | 0.00 | 0.00 | 85 | 1007.7 |
| 20260505113020 | 69 | 169 | 3.0 | 5.0 | 0.00 | 0.00 | 0.00 | 85 | 1007.9 |
| 20260505111605 | 69 | 183 | 2.0 | 4.0 | 0.00 | 0.00 | 0.00 | 85 | 1007.7 |